Reflectivity
-20 -19 -20 -20 -20 -20 -20 -20 -20 -20 -20 -20 -20 -20 -20 -20 -20 -20 -20 -20 -20 -20 -20 -20 1 13 16 -19 -9 12 9 16 13
18 -20 -20 -20 -20 -20 -20 -20 -20 -20 -20 3 -18 -13 -20 -20 -20 -20 -14 9 12 -16 13 14 19 -10 17 17 19 14 16 -2 -16
16 -10 -20 -20 -20 -20 -20 -20 -20 -20 -8 -20 -20 -20 -20 -6 -20 -13 15 20 9 -1 12 15 15 12 14 1 15 19 1 15 -2
14 12 -17 -20 -20 -20 -20 -20 -20 -20 -20 8 -20 -20 -4 12 4 18 19 23 12 -13 -15 -14 18 15 17 -4 -7 17 -20 -19 20
-12 -20 -20 -20 -20 -20 -20 -20 -20 -20 -8 -20 -6 17 -20 -20 -20 -20 -19 23 11 -10 -20 14 16 14 14 -5 -15 8 18 12 -5
1 -20 -20 -14 -20 -20 -20 -20 -20 -20 -10 -18 15 -4 -20 -20 -20 -20 0 12 -16 7 -20 13 17 15 15 17 13 -0 6 5 7
13 -9 -20 -20 -20 -20 -20 -13 -20 -20 6 -14 4 9 -9 6 -20 -20 -20 22 -3 -12 -8 18 18 16 15 17 -4 15 13 17 2
17 3 -14 -13 -20 -8 -20 -13 -20 -20 -20 -20 3 18 2 12 8 -5 -10 22 14 12 -3 15 12 15 15 17 15 19 16 2 -20
-20 16 12 -19 -20 -20 -20 -20 -20 -7 12 17 11 6 7 6 11 -1 -7 11 16 15 17 14 14 14 18 13 17 14 -6 -20 -20
-10 -20 -13 -5 -20 -20 -20 -20 -20 -20 12 11 7 4 -18 -20 -20 1 16 11 18 16 14 17 15 17 12 18 15 1 -20 -20 -20
13 10 12 5 14 -20 -20 -20 -20 -20 1 10 11 -15 -20 9 -20 -19 15 12 12 17 17 16 16 12 17 16 9 -2 -20 -20 -20
6 -20 -2 9 16 -20 -20 -1 -20 -20 -10 6 12 12 14 5 -20 -20 -13 -2 11 14 13 7 15 17 17 14 -4 -20 -20 -20 -20
4 5 -3 -19 16 16 -19 8 -20 -20 -12 -7 12 -20 8 13 -19 -20 -20 -20 -15 -14 22 18 14 11 16 7 -20 -17 -20 -20 -20
-15 -17 -19 -17 -15 17 5 -18 -20 -20 -20 -20 -18 -20 -20 -3 -1 -2 -20 -20 -20 4 19 10 15 -1 9 9 -19 -20 -20 -20 -20
-20 -8 -16 -12 -4 15 -2 -20 -20 -2 -3 -1 -6 -20 -20 -20 -18 -20 -20 -20 2 10 13 -7 9 14 16 -6 -20 -20 -20 -20 -20
7 -11 12 -19 22 -20 22 24 11 12 7 7 2 -14 -20 -20 -20 -20 -20 -20 -20 9 11 -6 7 5 13 9 -20 -20 -20 -20 -20
10 7 6 2 -20 8 12 -3 -3 -12 -20 -20 -14 -6 -20 -20 -20 -20 0 4 -20 -2 4 11 10 8 13 6 -9 -20 -20 -20 -20
8 4 9 6 2 13 4 28 26 2 5 17 -7 -20 -20 -20 -20 -20 -20 -13 -16 -4 -19 -11 8 10 10 11 8 -8 -20 -20 -20
22 21 2 -15 -10 14 7 16 20 16 22 16 9 12 -18 -20 -20 -20 -20 -20 -20 -20 -20 -20 -18 5 8 16 15 9 -20 -20 -20
32 18 -17 -10 -20 -13 25 -15 4 22 -14 15 20 10 -14 -2 -12 -20 -20 -20 -20 -20 -20 -20 -20 -20 -4 -20 -20 -20 -20 -20 -20
Wind_Speed
17 18 16 16 15 16 16 16 16 14 12 12 12 13 12 9 5 4 6 6 17 18 17 17 18 19 16 17 17 18 19 17 19
19 18 16 15 16 16 17 19 17 13 11 14 15 14 11 5 5 5 4 9 20 20 17 16 16 16 16 17 18 19 18 16 17
19 18 17 16 15 15 17 19 16 12 17 17 15 14 10 7 6 5 4 16 20 19 16 16 15 19 16 18 17 17 16 17 16
18 17 17 16 15 15 16 16 14 12 16 18 14 11 11 7 5 5 3 13 20 19 16 14 15 15 16 19 15 15 15 14 13
15 14 14 14 14 14 14 14 12 16 15 16 13 11 12 6 5 4 3 13 17 18 17 14 15 14 18 18 15 13 12 15 14
9 6 10 12 13 13 14 12 13 14 14 14 12 9 4 5 4 3 7 12 16 16 16 11 15 15 16 14 15 11 12 13 11
6 6 10 11 12 12 12 11 13 8 5 5 7 4 4 5 4 2 9 11 15 16 15 11 14 14 13 13 13 12 11 11 12
2 3 2 3 6 3 5 7 3 6 4 4 3 4 4 3 3 5 10 11 14 14 14 12 14 13 13 12 11 11 11 9 10
4 2 4 4 3 5 5 3 5 4 4 6 5 4 4 2 3 3 8 10 10 12 13 13 14 13 13 11 11 10 9 9 9
5 4 3 4 3 4 5 4 4 4 4 4 4 4 4 3 3 2 7 8 10 12 14 13 14 13 12 12 11 9 9 9 9
5 5 4 4 4 4 5 6 5 4 4 4 4 4 3 3 5 3 4 9 9 12 14 14 14 13 13 12 10 9 9 8 9
7 5 4 4 4 5 5 3 3 4 3 4 3 4 4 4 4 4 5 6 11 11 14 16 14 13 13 12 11 10 9 9 8
5 4 4 4 4 4 4 4 4 4 4 4 3 3 4 4 5 2 2 3 4 7 13 15 15 14 14 13 12 11 10 9 9
6 4 3 4 3 4 4 2 4 5 4 3 4 3 4 5 5 5 4 4 3 4 9 12 14 14 15 14 13 12 11 11 10
5 4 4 4 2 3 2 3 2 3 7 4 3 2 1 2 4 5 4 5 6 4 5 5 6 13 16 16 14 14 13 13 12
5 4 5 4 2 3 4 2 4 2 2 4 2 2 3 3 3 3 3 4 6 5 5 4 4 7 16 15 17 16 16 15 14
5 5 4 4 3 3 3 2 2 2 5 3 3 2 1 2 4 3 4 6 5 5 6 6 7 7 6 8 16 17 18 17 16
4 5 4 4 4 3 1 5 4 3 3 3 4 2 3 1 2 6 4 6 4 6 7 7 8 10 9 10 14 17 19 20 19
1 3 4 4 2 3 4 3 2 4 3 1 1 1 4 4 2 2 4 4 6 7 5 7 9 10 9 13 14 17 20 23 22
4 5 3 1 2 2 3 4 4 3 3 3 2 1 1 2 3 3 3 2 5 5 7 7 6 9 9 7 11 19 22 26 24
Wind_Direction
139 126 111 117 126 131 130 130 129 124 132 134 128 125 119 107 105 109 117 106 110 115 111 110 104 101 111 106 105 108 107 99 89
135 120 123 131 136 135 135 134 132 137 146 133 131 124 112 103 96 95 109 111 120 114 111 111 114 116 115 110 108 97 94 102 105
133 135 139 141 140 140 142 138 139 145 134 133 129 122 110 93 89 86 95 133 121 117 116 117 119 114 120 112 108 112 108 102 106
142 144 145 145 146 144 146 145 141 141 137 133 130 121 108 95 98 101 104 136 126 123 123 121 122 121 121 116 106 114 100 110 103
150 149 152 151 149 149 152 152 137 136 137 130 125 109 98 100 99 102 128 136 127 124 126 135 133 130 117 114 114 104 114 118 93
146 148 160 154 154 156 159 154 137 128 128 125 122 109 111 115 108 117 133 136 129 130 121 139 133 132 118 122 120 116 107 105 112
153 163 160 157 158 163 164 150 130 111 122 118 113 112 104 105 124 124 138 151 141 138 131 149 141 123 125 123 120 122 123 119 115
151 138 133 141 143 152 128 129 117 129 121 121 115 113 117 113 123 138 141 153 140 141 147 141 124 128 136 132 130 126 132 116 116
141 145 143 139 144 141 125 135 138 126 131 130 124 142 118 130 110 147 166 151 155 148 149 141 142 148 141 141 137 139 133 130 134
147 156 149 147 143 145 134 150 153 137 130 114 143 140 142 165 136 166 144 133 164 156 150 157 155 154 156 156 142 149 146 148 143
149 154 160 172 159 161 145 171 158 149 140 145 158 144 140 163 144 147 151 152 154 163 169 172 168 167 161 160 155 156 165 158 157
156 160 159 187 167 165 139 145 117 127 115 163 164 153 148 167 160 169 167 165 177 199 188 170 176 173 176 159 171 176 173 171 170
148 146 163 167 156 158 158 151 140 141 167 152 176 164 165 168 158 169 192 187 180 192 184 180 182 183 179 175 183 184 186 184 182
144 140 138 134 167 147 162 143 138 157 139 159 149 175 182 174 168 185 190 191 223 187 209 182 185 195 185 179 193 196 195 195 194
147 134 130 122 157 165 163 142 127 150 156 130 101 79 252 176 187 199 189 186 215 202 174 191 200 182 195 182 202 204 205 205 203
144 138 137 140 165 171 190 146 168 114 108 103 57 47 5 297 252 217 216 215 209 210 193 193 189 187 194 198 198 208 210 211 211
144 142 150 159 155 164 194 201 150 119 170 135 120 169 346 277 252 256 225 215 212 212 226 200 191 180 194 199 199 206 214 215 217
143 137 148 169 162 178 125 217 163 181 188 228 144 149 200 111 242 240 230 222 208 214 213 216 206 197 196 195 204 200 210 217 221
96 120 116 125 131 182 204 164 216 149 194 289 207 108 136 173 268 279 254 232 225 219 218 220 210 206 206 200 201 203 204 215 223
5 14 22 299 185 186 223 173 205 231 155 201 180 192 116 114 143 230 278 324 244 229 221 213 215 214 208 210 211 203 207 216 225